Regional Weather Roundup
Issued by NWS Charleston, SC

Current Version | Previous Version | Graphics & Text | Print | Product List | Glossary On
Versions: 1 2 3 4 5 6 7 8 9 10 11 12 13 14 15 16 17 18 19 20 21 22 23 24 25 26 27 28 29 30 31 32 33 34 35 36 37 38 39 40 41 42 43 44 45 46 47 48 49 50
000
ASUS42 KCHS 242125
RWRCHS

REGIONAL WEATHER ROUNDUP
NATIONAL WEATHER SERVICE CHARLESTON SC
500 PM EDT THU APR 24 2014

NOTE: "FAIR" INDICATES FEW OR NO CLOUDS BELOW 12,000 FEET WITH NO
SIGNIFICANT WEATHER AND/OR OBSTRUCTIONS TO VISIBILITY.

NOT ALL STATIONS ARE QUALITY CONTROLLED BY THE NATIONAL
WEATHER SERVICE. USE DATA WITH CAUTION...ESPECIALLY
DEWPOINT OBSERVATIONS.

SCZ027-030-031-034>040-042>050-242200-
...SOUTH CAROLINA...

CITY           SKY/WX    TMP DP  RH WIND       PRES   REMARKS
N CHARLESTON   SUNNY     73  56  54 SE14      30.01S
WATERFRONT PRK   N/A     66 N/A N/A NE15        N/A
FORT JOHNSON     N/A     64  57  77 E8G17     30.06F
MOUNT PLEASANT LGT RAIN  68  57  68 E9        30.01S
JOHNS ISLAND   CLEAR     68  59  73 E10       30.01S
PINOPOLIS        N/A     79  54  41 SE6       29.91S
MONCKS CORNER  FAIR      77  57  50 SE8       29.99S
SUMMERVILLE    NOT AVBL
BEAUFORT MCAS  MOSUNNY   71  60  68 S12       30.00S
BEAUFORT ARPT  FAIR      70  61  73 E12       30.00R
HILTON HEAD IS MOSUNNY   68  61  77 NE10G16   30.00F
GEORGETOWN     NOT AVBL
WALTERBORO     CLEAR     77  59  53 SE10      29.99R
ORANGEBURG     SUNNY     80  50  34 NE3       29.96F
BARNWELL       FAIR      82  46  28 SE3       29.96S
AIKEN          FAIR      81  52  36 SE5       29.99S
MANNING        FAIR      79  55  44 SE8       29.98S
KINGSTREE      NOT AVBL
COLUMBIA       SUNNY     79  45  29 SE12      29.96F
SUMTER         SUNNY     78  46  31 SE9       29.97F
FLORENCE       SUNNY     77  44  30 S6        29.99F
MYRTLE BEACH   SUNNY     64  46  52 E12       30.03F
N MYRTLE BEACH MOSUNNY   65  48  54 SE8       30.03F

$$

GAZ063-065-086>088-099>101-113>116-118-119-134-136>141-150-242200-
...GEORGIA...

CITY           SKY/WX    TMP DP  RH WIND       PRES   REMARKS
SAVANNAH ARPT  PTSUNNY   75  60  59 SE14      29.97F
HUNTER AAF     MOSUNNY   72  62  71 E14       29.96F
FORT STEWART   PTSUNNY   76  67  73 E7        29.95S
STATESBORO     NOT AVBL
SYLVANIA       MOCLDY    78  61  54 SE7       29.96S
CLAXTON        MOCLDY    81  64  57 SE5       29.95S
THOMSON        SUNNY     80  52  37 CALM      29.99S
AUGUSTA-BUSH   SUNNY     82  45  27 SW13      29.94F
AUGUSTA-DANIEL SUNNY     83  45  26 VRB5      29.95F
SWAINSBORO     CLOUDY    81  52  36 SW5       29.95F
VIDALIA        PTSUNNY   82  54  36 S6        29.95S
ALMA           PTSUNNY   82  54  37 SE3       29.93F
WAYCROSS       NOT AVBL
JESUP          CLOUDY    79  64  61 SE5       29.94S
BRUNSWICK      SUNNY     79  66  65 E8        29.95F
SAINT SIMONS   MOSUNNY   76  68  76 SE10      29.95F

$$

SCZ027-028-034-036>038-045-046-048>050-GAZ119-141-242200-
...LAKE AND SUPPLEMENTAL COASTAL OBSERVATIONS...

STATION/POSITION TIME  TEMP    WIND        PRES    WAVE   SWELL
                       AIR SEA DIR/SP/G            HT/PER HT/PER/DIR
                 (UTC) (F)     (DEG/KT/KT) (MB)    (FT/S) (FT/S/D)
UPR LAKE MARION  NOT AVBL
WINYAH BAY       2100   62      80/ 11     1016.0F
LAKE MURRAY      2100   76      CALM  /  1 1014.2S
ACE BASIN NERRS  2100   73      90/  5     1016.0S
FORT PULASKI     2100   66 61   60/ 13/ 17 1015.6S
SAPELO ISLAND    NOT AVBL

$$

ANZ835-935-AMZ111-154-330-350-352-354-374-450-454-472-242200-
...C-MAN AND BUOY OBSERVATIONS...

STATION/POSITION TIME  TEMP    WIND        PRES    WAVE   SWELL
                       AIR SEA DIR/SP/G            HT/PER HT/PER/DIR
                 (UTC) (F)     (DEG/KT/KT) (MB)    (FT/S) (FT/S/D)
FOLLY BEACH CMAN 2100   64      60/ 16/ 18 1016.6F
BUOY 41004       2100   72 72   90/ 16/ 17 1014.8F   4/ 6   2/ 7
BUOY 41008       2100   71 70  100/  8/ 10 1014.4F   1/14   2/ 90/14
5E ST. MARYS GA  2100      70                N/A     1/ 8
FRYING PAN BUOY  2100   65 68   80/ 14/ 16 1016.4F   4/ 6   2/ 70/10
BUOY 41025       NOT AVBL
CAPE LOOKOUT NC  2100   58     130/  8/  9 1017.1F
BUOY 41002       NOT AVBL
BUOY 41010       2100   75 77  150/  6/  8 1016.1S   2/ 9   2/ 80/ 9
BUOY 41012       NOT AVBL
ST AUGUSTINE FL  2100   71     160/ 11/ 12 1014.5F
CAPERS NEARSHORE NOT AVBL
FRIPP NEARSHORE  2000   66      80/ 14/ 16   N/A


$$



USA.gov is the U.S. government's official web portal to all federal, state and local government web resources and services.